GW2328 Weather Reports


Display with metric or nautical units.
time (UTC)temp
F
wind
direction
speed
MPH
gust
MPH
rain 1hr
in
rain 24hr
in
rain mn
in
humidity
%
barometer
mb
20240530073109 53 177 0.0 0.0 0.00 0.00 0.00 99 1025.2
20240530072608 54 182 0.0 0.0 0.00 0.00 0.00 99 1025.0
20240530072107 54 179 0.0 0.0 0.00 0.00 0.00 99 1025.0
20240530071605 54 175 0.0 0.0 0.00 0.00 0.00 99 1024.8
20240530071105 54 177 0.0 0.0 0.00 0.00 0.00 99 1024.9
20240530070605 54 177 0.0 0.0 0.00 0.00 0.00 99 1025.2
20240530070104 54 180 0.0 0.0 0.00 0.00 0.00 99 1025.1
20240530065603 54 177 0.0 0.0 0.00 0.00 0.00 99 1025.0
20240530065102 54 172 0.0 0.0 0.00 0.00 0.00 99 1025.1
20240530064602 54 172 0.0 0.0 0.00 0.00 0.00 99 1025.1
20240530064100 55 175 0.0 0.0 0.00 0.00 0.00 99 1025.0
20240530063558 55 177 0.0 0.0 0.00 0.00 0.00 99 1025.2
20240530063057 55 180 0.0 0.0 0.00 0.00 0.00 99 1025.1
20240530062554 55 180 0.0 0.0 0.00 0.00 0.00 99 1025.0
20240530062054 55 180 0.0 0.0 0.00 0.00 0.00 99 1024.9
20240530061554 55 177 0.0 0.0 0.00 0.00 0.00 99 1025.2
20240530061053 55 176 0.0 0.0 0.00 0.00 0.00 99 1025.1
20240530060552 55 172 0.0 0.0 0.00 0.00 0.00 99 1025.1
20240530060051 55 172 0.0 0.0 0.00 0.00 0.00 99 1025.0
20240530055551 55 174 0.0 0.0 0.00 0.00 0.00 99 1025.0
20240530055049 55 174 0.0 0.0 0.00 0.00 0.00 99 1024.9
20240530054548 55 175 0.0 0.0 0.00 0.00 0.00 99 1025.2
20240530054047 55 176 0.0 0.0 0.00 0.00 0.00 99 1025.2
20240530053546 56 177 0.0 0.0 0.00 0.00 0.00 99 1025.1
20240530053044 56 177 0.0 0.0 0.00 0.00 0.00 99 1024.8
20240530052542 56 177 0.0 0.0 0.00 0.00 0.00 99 1025.1
20240530052040 56 177 0.0 0.0 0.00 0.00 0.00 99 1024.9
20240530051539 56 177 0.0 0.0 0.00 0.00 0.00 99 1025.1
20240530051038 56 176 0.0 0.0 0.00 0.00 0.00 99 1024.9
20240530050536 56 177 0.0 0.0 0.00 0.00 0.00 98 1025.1
20240530050035 56 179 0.0 0.0 0.00 0.00 0.00 98 1025.0
20240530045534 56 180 0.0 0.0 0.00 0.00 0.00 98 1024.9
20240530045034 56 190 0.0 0.0 0.00 0.00 0.00 98 1024.8
20240530044534 57 178 0.0 0.0 0.00 0.00 0.00 98 1024.8
20240530044033 57 175 0.0 0.0 0.00 0.00 0.00 98 1025.0
20240530043531 57 175 0.0 0.0 0.00 0.00 0.00 98 1024.9
20240530043030 57 175 0.0 0.0 0.00 0.00 0.00 98 1024.7
20240530042528 57 175 0.0 0.0 0.00 0.00 0.00 97 1025.0
20240530042028 57 175 0.0 0.0 0.00 0.00 0.00 97 1024.9
20240530041527 57 176 0.0 0.0 0.00 0.00 0.00 97 1025.1
20240530041027 57 177 0.0 0.0 0.00 0.00 0.00 97 1024.8
20240530040525 57 179 0.0 0.0 0.00 0.00 0.00 97 1024.7
20240530040024 58 188 0.0 0.0 0.00 0.00 0.00 97 1024.5
20240530035522 58 179 0.0 0.0 0.00 0.00 0.00 97 1024.5
20240530035021 58 177 0.0 0.0 0.00 0.00 0.00 97 1024.7
20240530034520 58 176 0.0 0.0 0.00 0.00 0.00 97 1024.6
20240530034018 58 175 0.0 0.0 0.00 0.00 0.00 96 1024.7
20240530033516 58 174 0.0 0.0 0.00 0.00 0.00 96 1024.9
20240530033014 58 173 0.0 0.0 0.00 0.00 0.00 96 1024.7
20240530032513 58 172 0.0 0.0 0.00 0.00 0.00 96 1024.7
20240530032012 59 172 0.0 0.0 0.00 0.00 0.00 96 1024.8
20240530031511 59 172 0.0 0.0 0.00 0.00 0.00 96 1024.8
20240530031010 59 174 0.0 0.0 0.00 0.00 0.00 95 1024.8
20240530030509 59 174 0.0 0.0 0.00 0.00 0.00 95 1024.7
20240530030007 59 174 0.0 0.0 0.00 0.00 0.00 95 1024.8
20240530025505 59 174 0.0 0.0 0.00 0.00 0.00 95 1024.7
20240530025004 60 172 0.0 0.0 0.00 0.00 0.00 95 1024.8
20240530024503 60 170 0.0 0.0 0.00 0.00 0.00 94 1024.7
20240530024002 60 178 0.0 0.0 0.00 0.00 0.00 94 1024.7
20240530023501 60 178 0.0 0.0 0.00 0.00 0.00 94 1024.5
20240530023001 60 176 0.0 0.0 0.00 0.00 0.00 94 1024.5
20240530022500 61 186 0.0 1.0 0.00 0.00 0.00 93 1024.4
20240530021959 61 184 0.0 0.0 0.00 0.00 0.00 93 1024.4
20240530021458 61 177 0.0 0.0 0.00 0.00 0.00 92 1024.4
20240530020958 61 176 0.0 0.0 0.00 0.00 0.00 91 1024.7
20240530020456 61 175 0.0 0.0 0.00 0.00 0.00 90 1024.5
20240530015956 61 175 0.0 0.0 0.00 0.00 0.00 90 1024.4
20240530015456 62 175 0.0 0.0 0.00 0.00 0.00 89 1024.5
20240530014954 62 175 0.0 0.0 0.00 0.00 0.00 89 1024.3
20240530014454 62 175 0.0 0.0 0.00 0.00 0.00 88 1024.5
20240530013952 62 176 0.0 0.0 0.00 0.00 0.00 88 1024.5
20240530013449 63 175 0.0 0.0 0.00 0.00 0.00 88 1024.3
20240530012947 63 175 0.0 0.0 0.00 0.00 0.00 87 1024.3
20240530012445 64 176 0.0 0.0 0.00 0.00 0.00 86 1024.0
20240530011944 64 176 0.0 0.0 0.00 0.00 0.00 86 1024.1
20240530011419 64 179 0.0 0.0 0.00 0.00 0.00 85 1024.0
20240530010918 64 178 0.0 0.0 0.00 0.00 0.00 85 1024.0
20240530010417 65 175 0.0 0.0 0.00 0.00 0.00 84 1024.3
20240530005915 65 176 0.0 0.0 0.00 0.00 0.00 83 1024.2
20240530005414 65 176 0.0 0.0 0.00 0.00 0.00 81 1024.2
20240530004903 66 174 0.0 0.0 0.00 0.00 0.00 81 1024.1
20240530004403 66 171 0.0 0.0 0.00 0.00 0.00 81 1024.1
20240530003902 66 175 0.0 0.0 0.00 0.00 0.00 81 1024.0
20240530003401 66 176 0.0 0.0 0.00 0.00 0.00 80 1024.0
20240530002901 67 176 0.0 0.0 0.00 0.00 0.00 80 1024.2
20240530002359 67 176 0.0 0.0 0.00 0.00 0.00 79 1024.2
20240530001858 67 176 0.0 0.0 0.00 0.00 0.00 77 1024.1
20240530001357 67 176 0.0 0.0 0.00 0.00 0.00 78 1024.1
20240530000856 67 176 0.0 0.0 0.00 0.00 0.00 77 1024.0
20240530000356 68 177 0.0 0.0 0.00 0.00 0.00 78 1024.0
20240529235855 68 174 0.0 0.0 0.00 0.00 0.00 78 1024.0
20240529235352 68 176 0.0 0.0 0.00 0.00 0.00 77 1024.0
20240529234852 68 175 0.0 0.0 0.00 0.00 0.00 78 1024.0
20240529234351 69 182 0.0 0.0 0.00 0.00 0.00 76 1023.9
20240529233849 69 176 0.0 0.0 0.00 0.00 0.00 75 1024.1
20240529233348 69 176 0.0 1.0 0.00 0.00 0.00 73 1023.9
20240529232846 69 177 0.0 0.0 0.00 0.00 0.00 73 1023.9
20240529232345 69 176 0.0 0.0 0.00 0.00 0.00 73 1023.9
20240529231846 69 176 0.0 0.0 0.00 0.00 0.00 73 1023.8
20240529231345 69 176 0.0 0.0 0.00 0.00 0.00 72 1023.8
20240529230844 69 176 0.0 0.0 0.00 0.00 0.00 71 1023.8
20240529230342 69 178 0.0 0.0 0.00 0.00 0.00 68 1023.6
20240529225840 69 176 0.0 1.0 0.00 0.00 0.00 67 1023.7
20240529225338 69 173 0.0 2.0 0.00 0.00 0.00 67 1023.6
20240529224837 69 209 1.0 1.0 0.00 0.00 0.00 67 1023.8
20240529224337 70 195 0.0 1.0 0.00 0.00 0.00 68 1023.7
20240529223836 70 191 1.0 2.0 0.00 0.00 0.00 65 1023.8
20240529223335 70 288 1.0 2.0 0.00 0.00 0.00 65 1023.5
20240529222835 71 178 0.0 1.0 0.00 0.00 0.00 63 1023.6
20240529222334 71 177 1.0 2.0 0.00 0.00 0.00 62 1023.6
20240529221834 72 179 0.0 1.0 0.00 0.00 0.00 63 1023.5
20240529221332 73 180 0.0 1.0 0.00 0.00 0.00 61 1023.1
20240529220831 73 242 1.0 1.0 0.00 0.00 0.00 60 1023.6
20240529220329 72 208 1.0 2.0 0.00 0.00 0.00 61 1023.8
20240529215829 71 180 0.0 1.0 0.00 0.00 0.00 61 1023.7
20240529215328 71 195 1.0 1.0 0.00 0.00 0.00 62 1023.7
20240529214827 72 176 0.0 1.0 0.00 0.00 0.00 60 1023.7
20240529214324 73 174 0.0 1.0 0.00 0.00 0.00 60 1023.5
20240529213824 74 81 1.0 2.0 0.00 0.00 0.00 59 1023.6
20240529213323 74 208 1.0 1.0 0.00 0.00 0.00 59 1023.7
20240529212821 74 1 1.0 1.0 0.00 0.00 0.00 61 1023.5
20240529212319 73 202 1.0 3.0 0.00 0.00 0.00 60 1023.6
20240529211819 73 9 1.0 3.0 0.00 0.00 0.00 60 1023.5
20240529211318 73 14 2.0 3.0 0.00 0.00 0.00 60 1023.7
20240529210819 73 176 1.0 1.0 0.00 0.00 0.00 62 1023.4
20240529210317 71 185 0.0 1.0 0.00 0.00 0.00 66 1023.7
20240529205815 71 100 0.0 1.0 0.00 0.00 0.00 63 1023.5
20240529205315 71 246 2.0 3.0 0.00 0.00 0.00 66 1023.6
20240529204814 70 245 1.0 3.0 0.00 0.00 0.00 65 1023.7
20240529204313 70 123 1.0 2.0 0.00 0.00 0.00 65 1023.7
20240529203812 69 190 1.0 3.0 0.00 0.00 0.00 66 1023.7
20240529203309 70 308 2.0 3.0 0.00 0.00 0.00 66 1023.7
20240529202808 69 229 1.0 2.0 0.00 0.00 0.00 64 1023.7
20240529202307 70 106 1.0 2.0 0.00 0.00 0.00 65 1023.7
20240529201806 71 83 0.0 1.0 0.00 0.00 0.00 63 1023.9
20240529201306 71 298 2.0 2.0 0.00 0.00 0.00 65 1024.0
20240529200734 70 154 1.0 3.0 0.00 0.00 0.00 64 1023.8
20240529200233 70 316 3.0 3.0 0.00 0.00 0.00 64 1023.9
20240529195732 71 228 1.0 3.0 0.00 0.00 0.00 63 1023.9
20240529195229 72 140 1.0 2.0 0.00 0.00 0.00 60 1024.2
20240529194728 71 166 1.0 2.0 0.00 0.00 0.00 63 1024.1
20240529194226 71 268 2.0 3.0 0.00 0.00 0.00 63 1024.1
20240529193725 70 314 3.0 3.0 0.00 0.00 0.00 68 1024.3
20240529193224 69 28 2.0 3.0 0.00 0.00 0.00 66 1024.3
20240529192723 69 188 0.0 1.0 0.00 0.00 0.00 67 1024.1
20240529192222 69 305 1.0 2.0 0.00 0.00 0.00 66 1024.6
20240529191720 69 132 1.0 6.0 0.00 0.00 0.00 65 1024.5
20240529191219 70 144 0.0 2.0 0.00 0.00 0.00 66 1024.5
20240529190718 71 179 1.0 5.0 0.00 0.00 0.00 63 1024.5
20240529190217 70 9 1.0 3.0 0.00 0.00 0.00 64 1024.5
20240529185716 71 286 3.0 3.0 0.00 0.00 0.00 61 1024.6
20240529185216 70 242 1.0 2.0 0.00 0.00 0.00 64 1024.6
20240529184716 70 198 2.0 2.0 0.00 0.00 0.00 65 1024.5
20240529184215 69 11 2.0 2.0 0.00 0.00 0.00 65 1024.5
20240529183715 68 221 1.0 3.0 0.00 0.00 0.00 66 1024.5
20240529183214 66 197 1.0 1.0 0.00 0.00 0.00 72 1024.5
20240529182713 65 324 2.0 3.0 0.00 0.00 0.00 71 1024.4
20240529182212 66 316 3.0 5.0 0.00 0.00 0.00 70 1024.7
20240529181711 66 173 1.0 2.0 0.00 0.00 0.00 69 1024.6
20240529181209 67 331 1.0 2.0 0.00 0.00 0.00 67 1024.6
20240529180708 67 300 2.0 5.0 0.00 0.00 0.00 66 1024.4
20240529180207 68 344 3.0 3.0 0.00 0.00 0.00 66 1024.5
20240529175706 68 28 3.0 7.0 0.00 0.00 0.00 63 1024.5
20240529175206 68 7 2.0 6.0 0.00 0.00 0.00 65 1024.5
20240529174705 66 28 1.0 3.0 0.00 0.00 0.00 67 1024.6
20240529174204 66 180 2.0 3.0 0.00 0.00 0.00 69 1024.8
20240529173703 66 315 3.0 5.0 0.00 0.00 0.00 70 1024.6
20240529173201 66 281 2.0 5.0 0.00 0.00 0.00 70 1024.8
20240529172700 66 316 3.0 3.0 0.00 0.00 0.00 72 1024.8
20240529172148 66 297 2.0 3.0 0.00 0.00 0.00 71 1024.5
20240529171647 66 333 2.0 2.0 0.00 0.00 0.00 69 1024.5
20240529171145 66 324 3.0 3.0 0.00 0.00 0.00 68 1024.6
20240529170643 66 178 1.0 2.0 0.00 0.00 0.00 69 1024.7
20240529170143 66 50 2.0 2.0 0.00 0.00 0.00 70 1024.5
20240529165642 66 177 1.0 2.0 0.00 0.00 0.00 70 1024.5
20240529165141 66 276 1.0 3.0 0.00 0.00 0.00 70 1024.5
20240529164640 66 255 1.0 3.0 0.00 0.00 0.00 71 1024.8
20240529164139 65 16 3.0 6.0 0.00 0.00 0.00 71 1024.6
20240529163635 65 13 3.0 6.0 0.00 0.00 0.00 70 1024.7
20240529163134 65 10 3.0 3.0 0.00 0.00 0.00 71 1024.5
20240529162632 65 270 1.0 2.0 0.00 0.00 0.00 71 1024.5
20240529162132 65 66 2.0 5.0 0.00 0.00 0.00 71 1024.6
20240529161630 64 5 1.0 3.0 0.00 0.00 0.00 71 1024.6
20240529161130 65 10 2.0 5.0 0.00 0.00 0.00 72 1024.5
20240529160627 64 302 2.0 5.0 0.00 0.00 0.00 71 1024.5
20240529160126 66 137 0.0 2.0 0.00 0.00 0.00 71 1024.5
20240529155625 66 205 1.0 3.0 0.00 0.00 0.00 70 1024.5
20240529155124 66 176 1.0 3.0 0.00 0.00 0.00 70 1024.6
20240529154622 64 288 1.0 3.0 0.00 0.00 0.00 71 1024.2
20240529154122 64 211 1.0 3.0 0.00 0.00 0.00 71 1024.3
20240529153620 64 319 2.0 5.0 0.00 0.00 0.00 71 1024.2
20240529153119 64 7 3.0 5.0 0.00 0.00 0.00 71 1024.1
20240529152618 64 323 3.0 5.0 0.00 0.00 0.00 74 1024.3
20240529152116 65 325 3.0 3.0 0.00 0.00 0.00 74 1023.7
20240529151615 65 317 3.0 5.0 0.00 0.00 0.00 74 1023.5
20240529151112 64 22 2.0 2.0 0.00 0.00 0.00 77 1023.8
20240529150611 64 317 2.0 3.0 0.00 0.00 0.00 75 1024.0
20240529150110 64 330 2.0 3.0 0.00 0.00 0.00 74 1023.7
20240529145608 64 184 1.0 3.0 0.00 0.00 0.00 74 1023.7
20240529145108 65 9 2.0 3.0 0.00 0.00 0.00 74 1023.7
20240529144608 65 336 3.0 3.0 0.00 0.00 0.00 73 1023.5
20240529144107 65 296 1.0 3.0 0.00 0.00 0.00 74 1023.4
20240529143606 64 13 2.0 3.0 0.00 0.00 0.00 73 1023.5
20240529143105 65 1 3.0 6.0 0.00 0.00 0.00 73 1023.4
20240529142603 65 41 1.0 3.0 0.00 0.00 0.00 72 1023.5
20240529142101 64 343 2.0 3.0 0.00 0.00 0.00 74 1023.4
20240529141600 64 6 2.0 6.0 0.00 0.00 0.00 72 1023.3
20240529141058 64 0 5.0 6.0 0.00 0.00 0.00 72 1023.4
20240529140557 64 12 3.0 3.0 0.00 0.00 0.00 74 1023.5
20240529140055 64 291 3.0 5.0 0.00 0.00 0.00 74 1023.3
20240529135554 64 314 3.0 6.0 0.00 0.00 0.00 73 1023.0
20240529135052 63 293 2.0 3.0 0.00 0.00 0.00 75 1022.8
20240529134550 63 323 3.0 5.0 0.00 0.00 0.00 76 1023.0
20240529134050 63 340 2.0 3.0 0.00 0.00 0.00 77 1022.8
20240529133549 62 352 2.0 3.0 0.00 0.00 0.00 77 1023.0
20240529133047 62 20 2.0 5.0 0.00 0.00 0.00 76 1022.8
20240529132547 62 16 1.0 3.0 0.00 0.00 0.00 77 1023.1
20240529132046 62 243 1.0 2.0 0.00 0.00 0.00 78 1023.3
20240529131545 61 3 3.0 3.0 0.00 0.00 0.00 79 1023.0
20240529131043 61 299 2.0 3.0 0.00 0.00 0.00 79 1023.0
20240529130542 61 349 2.0 3.0 0.00 0.00 0.00 80 1022.8
20240529130041 61 224 1.0 2.0 0.00 0.00 0.00 80 1022.9
20240529125540 60 166 1.0 2.0 0.00 0.00 0.00 80 1022.8
20240529125040 60 345 3.0 5.0 0.00 0.00 0.00 80 1022.9
20240529124538 60 23 1.0 3.0 0.00 0.00 0.00 81 1022.7
20240529124036 60 317 2.0 2.0 0.00 0.00 0.00 81 1022.6
20240529123534 60 175 1.0 2.0 0.00 0.00 0.00 82 1022.6
20240529123032 59 101 1.0 2.0 0.00 0.00 0.00 82 1022.5
20240529122531 59 142 2.0 3.0 0.00 0.00 0.00 82 1022.7
20240529122030 59 236 2.0 2.0 0.00 0.00 0.00 83 1022.7
20240529121529 59 2 1.0 3.0 0.00 0.00 0.00 83 1022.8
20240529121028 59 77 1.0 2.0 0.00 0.00 0.00 84 1022.7
20240529120526 58 212 2.0 3.0 0.00 0.00 0.00 84 1022.8
20240529120024 58 225 1.0 1.0 0.00 0.00 0.00 85 1022.8
20240529115522 58 223 0.0 2.0 0.00 0.00 0.00 85 1022.7
20240529115022 58 207 1.0 1.0 0.00 0.00 0.00 85 1022.7
20240529114521 57 253 1.0 3.0 0.00 0.00 0.00 87 1022.9
20240529114020 57 199 1.0 2.0 0.00 0.00 0.00 88 1022.7
20240529113519 57 184 1.0 1.0 0.00 0.00 0.00 89 1022.6
20240529113018 57 187 0.0 1.0 0.00 0.00 0.00 89 1022.6
20240529112517 57 204 1.0 1.0 0.00 0.00 0.00 89 1022.3
20240529112016 57 194 1.0 2.0 0.00 0.00 0.00 89 1022.2
20240529111514 57 188 1.0 1.0 0.00 0.00 0.00 90 1022.2
20240529111014 56 200 1.0 2.0 0.00 0.00 0.00 90 1022.1
20240529110513 56 180 0.0 1.0 0.00 0.00 0.00 90 1022.3
20240529110013 56 211 0.0 2.0 0.00 0.00 0.00 91 1022.4
20240529105513 55 217 1.0 2.0 0.00 0.00 0.00 93 1022.1
20240529105011 55 197 1.0 2.0 0.00 0.00 0.00 94 1021.9
20240529104510 55 206 1.0 2.0 0.00 0.00 0.00 96 1021.9
20240529104008 54 199 1.0 2.0 0.00 0.00 0.00 97 1021.6
20240529103507 54 189 0.0 1.0 0.00 0.00 0.00 97 1021.8
20240529103006 54 189 1.0 1.0 0.00 0.00 0.00 97 1021.6
20240529102506 54 178 0.0 0.0 0.00 0.00 0.00 96 1021.5
20240529102005 54 183 0.0 0.0 0.00 0.00 0.00 96 1021.5
20240529101505 54 178 0.0 0.0 0.00 0.00 0.00 96 1021.4
20240529101003 54 177 0.0 0.0 0.00 0.00 0.00 96 1021.4
20240529100503 54 174 0.0 0.0 0.00 0.00 0.00 96 1021.3
20240529100002 55 171 0.0 0.0 0.00 0.00 0.00 96 1021.1
20240529095501 55 180 0.0 0.0 0.00 0.00 0.00 96 1020.9
20240529095000 55 180 0.0 0.0 0.00 0.00 0.00 96 1020.7
20240529094500 55 181 0.0 0.0 0.00 0.00 0.00 96 1020.6
20240529093958 55 178 0.0 0.0 0.00 0.00 0.00 96 1020.6
20240529093456 55 178 0.0 0.0 0.00 0.00 0.00 95 1020.4
20240529092955 55 178 0.0 0.0 0.00 0.00 0.00 95 1020.4
20240529092454 55 178 0.0 0.0 0.00 0.00 0.00 95 1020.2
20240529091954 55 178 0.0 0.0 0.00 0.00 0.00 95 1020.5
20240529091452 55 180 0.0 0.0 0.00 0.00 0.00 95 1020.2
20240529090951 55 180 0.0 0.0 0.00 0.00 0.00 95 1020.2
20240529090449 56 184 0.0 0.0 0.00 0.00 0.00 94 1020.1
20240529085948 56 177 0.0 0.0 0.00 0.00 0.00 94 1020.0
20240529085447 56 177 0.0 0.0 0.00 0.00 0.00 94 1020.0
20240529084947 56 177 0.0 0.0 0.00 0.00 0.00 93 1020.2
20240529084446 56 176 0.0 0.0 0.00 0.00 0.00 93 1020.2
20240529083944 57 176 0.0 0.0 0.00 0.00 0.00 93 1020.2
20240529083442 57 181 0.0 0.0 0.00 0.00 0.00 93 1020.1
20240529082941 57 177 0.0 0.0 0.00 0.00 0.00 92 1020.0
20240529082439 57 177 0.0 0.0 0.00 0.00 0.00 92 1020.1
20240529081938 57 177 0.0 0.0 0.00 0.00 0.00 92 1020.2
20240529081436 57 177 0.0 0.0 0.00 0.00 0.00 92 1020.1
20240529080934 57 178 0.0 0.0 0.00 0.00 0.00 92 1020.0
20240529080432 58 175 0.0 0.0 0.00 0.00 0.00 92 1020.2
20240529075930 58 174 0.0 0.0 0.00 0.00 0.00 92 1020.3
20240529075428 58 177 0.0 0.0 0.00 0.00 0.00 91 1020.1
20240529074927 58 178 0.0 0.0 0.00 0.00 0.00 91 1020.3
20240529074426 58 178 0.0 0.0 0.00 0.00 0.00 91 1020.3
20240529073925 58 177 0.0 0.0 0.00 0.00 0.00 90 1020.2
20240529073425 58 178 0.0 0.0 0.00 0.00 0.00 90 1020.4